Погода в Клепиково

Россия / Тюменская область     55°57′35″N   69°27′13″E
темп.,
°C
ветер,
м/с
пор.,
м/с
влажн.,
%
обл.,
%
осадки,
мм/ч
давл.,
гПа
погр.,
м
13 апреля, вт
вт1323:00+4ссз35891 0.0 103678
02:00+3ссв22867 0.0 103710
05:00+2с11895 0.0 103810
08:00+2юз34100100 0.0 1040135
11:00+5з349651 0.0 1040248
14:00+10з56625 0.0 10391000
17:00+9з57700 0.0 1038704
20:00+5юз48905 0.0 1038154
14 апреля, ср
ср1423:00+4юз410945 0.0 1037202
02:00+2юз5139630 0.0 1035272
05:00+2юз6149298 0.0 1034309
08:00+4юз6158780 0.0 1033401
11:00+10зюз8127562 0.0 1031590
14:00+13з8107018 0.0 1029868
17:00+14з697214 0.0 1028910
20:00+11зюз48875 0.0 1027132
15 апреля, чт
чт1523:00+9зюз379127 0.0 1027112
02:00+8зюз35925 0.0 102669
05:00+7зюз38935 0.0 1026124
08:00+10з49835 0.0 1025297
11:00+15з575614 0.0 1024819
14:00+17з674444 0.0 10221172
17:00+17з58545 0.0 10201107
20:00+13юз49815 0.0 1019161
16 апреля, пт
пт1623:00
02:00+9юз49845 0.0 1016156
05:00+7зюз488052 0.0 1015143
08:00+10з3773100 0.0 1014242
11:00+13с4474100 0.0 1014789
14:00+9ссв6782100 0.0 1015628
17:00+5св7994100 0.1 1016601
20:00+3св61196100 0.9 1017637
17 апреля, сб
сб1723:00+2св71295100 0.3 1014706
02:000св6108998 0.8 1017651
05:00−2ссв6107820 0.8 1018459
08:00−1св576745 0.0 1019789
11:00+2св445459 0.0 10181251
14:00+3св324589 0.0 10171623
17:00+3св2142100 0.0 10161576
20:00+2всв2359100 0.0 101581